TimePDT,TemperatureF,Dew PointF,Humidity,Sea Level PressureIn,VisibilityMPH,Wind Direction,Wind SpeedMPH,Gust SpeedMPH,PrecipitationIn,Events,Conditions,WindDirDegrees,DateUTC
5:00 AM,62,62,99,30.08,,East,4.6,,,,,100,2013-07-28 12:00:00
6:00 AM,53.6,44.6,72,29.91,15.0,Variable,2.3,-,N/A,,Partly Cloudy,0,2013-07-28 13:00:00
7:00 AM,57.2,44.6,63,29.92,15.0,Variable,2.3,-,N/A,,Scattered Clouds,0,2013-07-28 14:00:00
8:00 AM,64.4,42.8,45,29.91,15.0,North,8.1,-,N/A,,Partly Cloudy,10,2013-07-28 15:00:00
9:00 AM,69.8,41.0,35,29.89,15.0,NNE,4.6,-,N/A,,Partly Cloudy,20,2013-07-28 16:00:00
10:00 AM,71.6,42.8,35,29.87,15.0,North,8.1,-,N/A,,Partly Cloudy,10,2013-07-28 17:00:00
11:00 AM,72,64,68,30.06,,SE,6.9,,,,,140,2013-07-28 18:00:00
11:00 AM,75.2,42.8,31,29.87,15.0,NNE,10.4,18.4,N/A,,Partly Cloudy,20,2013-07-28 18:00:00
12:00 PM,78.8,44.6,30,29.85,15.0,North,10.4,-,N/A,,Partly Cloudy,350,2013-07-28 19:00:00
1:00 PM,82.4,42.8,25,29.83,15.0,NNW,12.7,-,N/A,,Scattered Clouds,340,2013-07-28 20:00:00
2:00 PM,84.2,42.8,23,29.81,15.0,North,9.2,-,N/A,,Scattered Clouds,350,2013-07-28 21:00:00
3:00 PM,82.4,46.4,28,29.82,15.0,North,4.6,-,N/A,,Scattered Clouds,10,2013-07-28 22:00:00
4:00 PM,80.6,44.6,28,29.82,15.0,NNE,5.8,-,N/A,,Scattered Clouds,30,2013-07-28 23:00:00
5:00 PM,69,68,96,30.01,,ESE,10.4,,,,,110,2013-07-29 00:00:00
5:00 PM,84.2,42.8,23,29.81,15.0,North,11.5,-,N/A,,Scattered Clouds,360,2013-07-29 00:00:00
6:00 PM,82.4,42.8,25,29.80,15.0,North,11.5,-,N/A,,Partly Cloudy,10,2013-07-29 01:00:00
7:00 PM,80.6,44.6,28,29.80,15.0,North,9.2,-,N/A,,Partly Cloudy,360,2013-07-29 02:00:00
8:00 PM,77.0,44.6,32,29.81,15.0,NNE,5.8,-,N/A,,Partly Cloudy,30,2013-07-29 03:00:00
9:00 PM,71.6,46.4,41,29.83,15.0,WNW,3.5,-,N/A,,Scattered Clouds,290,2013-07-29 04:00:00
11:00 PM,60,60,99,30.02,,SSE,9.2,,,,,160,2013-07-29 06:00:00